Dewpoint
-4 -6 -6 -7 -7 -6 -6 -6 -3 -3 -4 -5 -3 -1 0 0 1 1 0 1 3 4 6 7 8 8 9 9 9 10 10 10 10 10 10 10 9 8 8 8 7 7 7 7
-4 -7 -8 -7 -7 -7 -6 -5 -4 -3 -5 -5 -2 1 0 0 1 1 -0 0 1 2 3 5 7 8 8 9 9 9 9 9 9 10 9 9 9 8 8 7 7 7 6 7
-6 -9 -9 -7 -8 -6 -5 -4 -4 -2 -2 -2 -4 -0 -1 -2 -1 -1 0 -0 0 0 1 2 3 7 7 7 8 8 8 7 8 7 7 8 8 8 7 7 7 7 7 7
-9 -10 -7 -7 -10 -6 -4 -5 -4 -1 0 0 -4 -1 -3 -3 -2 -4 -4 -4 -4 -2 -1 1 2 5 6 7 7 7 8 7 8 8 6 6 6 7 7 7 6 7 7 7
-6 -11 -8 -9 -11 -7 -5 -6 -4 -2 -2 -1 -2 -0 -3 -3 -1 -3 -5 -6 -7 -5 -6 -2 -0 0 4 7 6 7 7 7 8 7 6 5 5 6 7 6 6 6 5 4
-8 -9 -8 -11 -9 -7 -6 -4 -4 -2 -1 3 -3 -1 -1 -1 -1 -3 -6 -7 -9 -9 -8 -8 -7 -1 3 5 6 6 6 7 7 7 7 7 5 4 4 4 3 3 3 2
-6 -8 -10 -9 -7 -5 -2 -1 3 1 4 3 -3 -0 -1 -2 -4 -5 -7 -9 -10 -10 -11 -10 -9 -8 -4 2 3 5 6 6 6 6 6 6 6 6 6 5 5 4 4 4
-4 -1 -10 -11 -6 -4 -3 -3 1 2 1 -3 -5 0 -0 -3 -6 -8 -9 -10 -11 -11 -11 -12 -12 -11 -10 -10 -9 -4 -0 2 4 5 5 6 6 6 6 6 6 4 4 4
-6 -5 -10 -10 -8 -6 -5 -4 -7 -1 -2 -4 -2 -1 -2 -4 -5 -7 -9 -10 -11 -11 -11 -12 -13 -13 -13 -13 -13 -12 -10 -7 -5 -3 -0 3 4 5 5 5 6 6 6 6
-7 -6 -8 -9 -11 -8 -6 -8 -4 -2 -0 0 -2 -0 1 -1 -3 -5 -8 -10 -11 -11 -12 -12 -13 -13 -14 -14 -15 -15 -14 -14 -13 -11 -10 -9 -6 -2 2 4 5 5 5 5
-8 -7 -6 -8 -8 -8 -5 -5 -6 -5 -4 -2 -3 -1 -1 -2 -3 -5 -8 -10 -11 -12 -12 -12 -13 -13 -14 -14 -15 -16 -17 -17 -17 -17 -16 -15 -14 -13 -11 -8 -6 -1 3 4
-7 -8 -4 -6 -9 -11 -8 -7 -8 -1 -1 -4 -5 -3 -3 -3 -4 -6 -8 -10 -11 -12 -12 -12 -13 -14 -14 -14 -15 -16 -17 -18 -18 -18 -19 -19 -19 -19 -19 -18 -16 -14 -11 -8
-8 -6 -3 -2 -5 -7 -6 -6 -7 -8 -3 -2 -1 -2 -4 -5 -6 -7 -9 -10 -11 -12 -12 -12 -12 -13 -14 -15 -15 -16 -16 -16 -16 -16 -17 -18 -19 -20 -20 -21 -20 -20 -20 -19
-9 -7 -6 -1 -2 -5 -4 -7 -8 -7 -0 -1 -1 -1 -3 -5 -6 -8 -9 -11 -12 -12 -12 -12 -12 -12 -13 -13 -15 -15 -15 -16 -16 -16 -17 -17 -17 -17 -17 -18 -18 -19 -20 -20
-6 -3 -4 -5 -4 -3 -3 -3 -3 -4 -6 -3 -5 -4 -3 -4 -8 -9 -10 -11 -11 -12 -12 -12 -12 -12 -13 -14 -14 -14 -15 -16 -16 -16 -16 -16 -17 -17 -17 -17 -17 -17 -17 -17
-5 -4 -3 -2 -3 -2 -1 -2 -2 -2 -3 -6 -6 -4 -8 -9 -9 -9 -10 -11 -11 -11 -12 -13 -13 -14 -15 -15 -15 -16 -16 -17 -18 -19 -18 -19 -23 -26 -26 -24 -21 -19 -18 -17
-3 -3 -0 2 -1 -1 1 -1 -0 -3 -4 -3 -1 -4 -8 -9 -9 -9 -10 -10 -11 -11 -12 -13 -13 -14 -14 -15 -15 -16 -18 -21 -23 -25 -24 -25 -27 -28 -27 -26 -26 -25 -23 -20
-2 -2 2 3 0 3 -2 -4 -2 -2 -4 -6 -6 -7 -8 -10 -10 -10 -10 -10 -11 -11 -12 -12 -13 -13 -14 -16 -17 -20 -24 -26 -27 -26 -26 -25 -24 -23 -23 -23 -24 -26 -25 -22
-3 2 3 4 2 -0 -2 -3 -3 -2 -3 -7 -7 -8 -10 -10 -10 -11 -11 -11 -11 -12 -12 -12 -13 -15 -17 -18 -19 -22 -23 -23 -22 -22 -21 -20 -20 -21 -21 -21 -21 -22 -22 -22
-5 -2 2 3 4 3 -2 -6 -7 -6 -2 -8 -9 -10 -10 -11 -8 -10 -11 -11 -11 -11 -12 -14 -15 -17 -19 -20 -20 -21 -20 -19 -19 -20 -20 -19 -19 -19 -19 -19 -20 -20 -22 -22
-1 1 2 2 4 2 -6 -8 -6 -3 -4 -10 -10 -10 -11 -10 -11 -11 -11 -11 -12 -13 -15 -16 -17 -19 -20 -19 -18 -19 -18 -18 -19 -19 -19 -19 -18 -18 -18 -19 -19 -19 -20 -21
0 1 1 2 3 2 -8 -7 -4 -7 -10 -10 -10 -10 -10 -11 -11 -11 -12 -13 -14 -14 -15 -16 -18 -20 -19 -17 -18 -18 -19 -19 -19 -19 -19 -19 -19 -18 -18 -18 -18 -17 -18 -19
1 1 2 0 -1 -9 -9 -9 -9 -9 -10 -10 -10 -10 -11 -11 -12 -12 -13 -13 -13 -14 -16 -17 -18 -19 -18 -18 -17 -18 -18 -18 -18 -18 -18 -18 -18 -18 -17 -17 -17 -17 -16 -16
-5 -6 0 -3 -7 -8 -8 -8 -8 -7 -7 -8 -10 -11 -12 -12 -13 -13 -13 -13 -14 -15 -17 -18 -17 -17 -18 -18 -17 -18 -18 -18 -17 -17 -18 -18 -18 -17 -17 -17 -16 -15 -14 -14
-4 -6 -1 -4 -6 -7 -7 -7 -8 -8 -9 -10 -12 -12 -12 -12 -12 -13 -13 -14 -15 -16 -17 -16 -17 -18 -18 -18 -18 -18 -18 -17 -17 -18 -18 -18 -17 -17 -17 -16 -15 -14 -13 -13
-6 -4 -2 -2 -7 -6 -8 -8 -9 -10 -11 -12 -11 -12 -12 -12 -13 -14 -14 -15 -16 -16 -16 -17 -18 -18 -18 -18 -18 -18 -18 -17 -17 -18 -18 -18 -17 -17 -16 -16 -15 -15 -13 -13
Wind_Speed
2 6 2 6 3 4 5 4 3 4 4 5 9 7 7 17 24 32 36 35 32 30 19 10 12 11 5 9 7 18 21 23 34 30 31 25 24 21 19 17 15 17 20 20
5 1 4 6 3 5 7 2 4 4 2 5 6 7 5 12 19 23 27 32 36 37 32 26 19 19 20 16 12 14 15 14 21 22 24 20 18 16 14 14 15 18 20 21
3 2 5 5 4 7 4 3 4 4 5 3 9 4 3 4 12 21 28 27 34 37 39 34 30 21 18 22 22 24 22 15 14 14 7 11 9 9 9 12 15 19 21 20
2 1 3 4 2 2 1 5 3 6 2 2 4 2 2 3 11 18 21 27 29 28 31 37 37 31 18 17 18 16 14 10 3 6 5 11 7 2 8 12 13 15 18 20
5 2 3 2 2 1 6 4 5 3 3 3 3 4 4 4 6 10 17 21 24 30 29 34 35 35 35 26 24 17 9 11 12 12 12 8 10 5 4 9 12 10 15 16
4 1 3 3 6 4 6 3 1 3 1 2 3 4 3 4 4 5 13 21 26 29 31 32 30 33 36 34 32 31 26 15 8 6 6 11 10 8 3 3 4 4 7 10
5 2 0 2 5 4 8 5 3 3 2 4 3 4 1 4 6 8 11 20 24 26 29 31 33 34 33 32 31 26 25 23 19 18 10 11 16 10 15 13 9 7 6 5
3 7 2 2 2 2 3 4 4 2 1 4 1 2 2 7 16 14 15 16 20 24 26 28 28 28 28 28 28 25 22 20 19 16 17 16 10 6 5 3 11 15 14 11
5 5 3 2 1 2 4 3 4 2 2 0 3 4 3 6 7 12 12 15 18 20 22 23 23 24 25 24 25 24 25 22 18 19 16 14 9 6 5 4 4 8 4 16
2 5 3 1 2 2 1 2 2 2 1 3 2 4 4 7 6 6 8 11 14 14 16 18 20 21 21 22 22 22 21 19 17 14 13 13 11 9 8 5 3 3 4 16
2 2 7 3 2 3 1 2 1 1 3 2 2 3 6 8 9 9 12 11 10 12 13 15 16 18 19 20 21 21 20 18 16 14 13 11 9 9 7 7 7 7 7 10
2 2 4 8 4 2 0 2 2 2 2 2 2 4 6 8 14 17 14 13 11 9 10 13 15 17 20 22 22 23 21 20 18 16 15 15 14 13 12 11 12 12 12 12
1 2 4 8 2 2 1 2 3 2 2 5 2 3 5 14 16 16 15 12 10 8 9 11 13 17 18 19 21 22 21 21 20 20 20 20 20 19 19 18 17 17 18 18
1 2 5 6 7 2 4 4 4 5 3 3 6 5 7 9 10 14 13 12 10 8 9 11 13 15 16 17 18 19 19 19 19 19 20 21 23 23 22 20 20 19 19 20
3 5 5 10 12 6 11 14 11 11 11 8 2 4 10 11 11 14 13 10 6 7 9 11 13 14 15 16 17 18 20 22 23 23 22 21 20 19 20 21 21 20 20 20
2 4 3 6 10 14 14 14 14 16 15 13 10 3 5 18 18 13 11 9 8 6 8 12 15 18 21 22 24 25 25 26 25 24 24 25 26 25 23 22 21 22 23 23
5 3 2 6 5 7 8 6 3 3 3 5 11 4 10 7 12 11 10 7 5 5 8 11 13 15 16 17 18 20 22 23 24 25 26 27 28 28 28 27 26 25 24 24
4 3 1 4 4 4 1 1 3 5 4 7 11 8 11 12 12 10 5 3 3 6 9 11 13 14 14 15 16 18 19 21 22 24 26 28 29 30 30 29 29 29 30 29
7 4 2 3 4 7 3 1 1 2 2 5 7 11 12 15 13 9 4 4 5 8 9 11 13 15 16 16 18 20 21 21 22 24 26 28 29 29 30 31 33 34 33 31
1 4 5 3 4 5 1 2 1 1 3 5 13 8 5 5 3 3 1 4 5 8 10 13 14 16 17 17 19 21 22 22 24 25 27 28 29 29 30 31 32 32 32 34
4 2 9 9 5 6 2 2 1 3 2 9 10 8 5 3 3 3 4 5 7 9 12 14 16 18 19 20 20 21 22 23 25 27 28 28 28 29 29 31 31 32 32 32
7 7 4 4 4 8 2 2 4 6 9 9 7 5 5 4 2 2 4 6 8 11 13 15 18 19 19 20 22 24 25 26 27 28 29 29 29 30 30 30 31 31 30 32
3 5 4 5 3 3 3 10 9 7 10 6 5 2 0 1 2 5 7 9 11 13 16 17 19 21 21 21 22 25 27 28 29 30 30 31 31 31 30 32 32 31 31 32
2 2 2 2 5 7 7 8 8 7 6 4 3 3 3 4 6 8 10 13 15 17 19 20 21 23 23 23 25 26 27 28 29 31 32 32 33 32 32 30 30 31 31 34
3 5 5 0 4 7 6 6 6 4 3 3 3 3 4 6 8 11 13 15 17 18 19 20 23 25 26 28 29 27 27 28 30 32 33 33 33 34 34 32 30 28 29 28
4 3 4 3 11 4 6 10 7 7 6 4 4 4 6 8 10 13 15 16 18 19 20 24 25 27 29 30 30 29 28 28 31 33 33 33 34 33 34 33 33 29 28 31
Wind_Direction
74 64 331 278 259 236 253 228 266 251 177 103 106 95 44 16 7 17 354 359 16 36 36 38 44 57 107 196 181 210 207 191 196 191 186 186 184 189 196 204 215 220 203 204
25 109 262 287 5 39 357 45 322 292 262 104 130 102 94 46 25 27 357 4 16 35 40 50 57 80 81 97 122 172 185 171 177 178 176 165 180 184 199 200 206 201 206 205
162 229 336 8 30 34 19 89 289 261 312 243 140 120 136 86 60 39 21 17 27 31 33 39 48 68 82 73 83 85 97 83 94 110 118 168 173 178 200 216 214 217 217 220
135 13 36 357 46 74 155 213 222 283 324 209 116 248 94 154 45 38 24 26 21 23 31 41 53 63 68 71 72 73 82 93 98 88 94 180 121 275 245 235 227 218 228 229
266 336 25 335 250 217 239 263 226 220 267 6 300 80 267 16 19 22 18 30 26 29 31 39 40 47 67 82 65 69 83 89 116 134 107 127 123 168 210 246 244 233 231 231
262 170 156 224 292 190 278 308 307 127 130 17 238 120 341 9 10 19 23 33 35 35 41 48 49 51 60 67 72 77 80 92 83 122 107 173 167 195 201 218 234 245 233 231
330 294 319 326 339 3 25 40 2 1 22 226 213 60 129 103 66 67 33 37 40 37 41 43 45 49 53 60 62 61 64 71 78 81 107 100 146 173 193 201 217 200 233 246
343 333 342 7 132 263 305 118 137 250 292 274 174 177 169 129 107 84 68 52 47 43 38 40 42 47 51 56 63 67 70 69 66 64 68 84 109 141 110 209 213 228 247 263
6 297 345 332 315 99 332 43 177 171 244 112 159 84 46 122 107 90 67 57 45 42 44 38 39 41 46 48 48 53 60 60 56 58 59 60 66 73 76 100 184 189 207 244
320 309 288 284 309 252 214 236 78 15 342 304 265 165 183 170 149 122 86 63 55 46 38 39 39 37 40 43 44 48 47 44 49 51 48 48 42 38 33 10 331 273 247 235
340 131 290 351 213 225 304 336 303 171 152 195 289 253 187 165 160 141 128 100 66 52 43 28 30 34 36 36 36 39 42 40 39 34 27 21 18 13 8 356 342 325 306 286
226 186 278 250 314 331 299 215 142 132 280 265 198 265 142 139 137 130 123 113 92 66 48 40 28 21 23 26 25 25 22 19 19 14 10 6 360 353 345 337 326 317 308 298
192 274 330 327 311 356 37 268 219 133 78 223 184 258 176 136 131 135 124 114 97 74 51 39 31 26 21 17 16 17 15 13 9 6 4 0 354 348 344 336 327 318 308 299
5 260 195 235 282 329 282 251 239 184 175 248 228 161 196 167 148 137 125 119 101 70 47 33 26 22 21 18 12 8 8 6 6 4 0 358 356 353 348 342 334 324 316 309
160 231 230 259 274 275 273 268 250 230 231 219 254 184 192 174 149 143 126 116 87 53 34 22 14 10 8 6 4 5 3 358 358 357 351 352 351 345 342 341 337 334 330 324
203 263 269 277 274 260 268 269 254 247 243 244 248 228 103 126 129 124 117 107 81 42 17 3 358 355 355 354 351 350 350 350 348 347 342 344 343 340 337 334 330 327 327 327
186 198 7 274 305 317 277 260 247 296 39 267 235 164 145 114 118 129 118 107 78 24 1 354 352 350 347 342 337 336 336 335 335 337 332 333 333 333 333 333 331 327 324 322
189 131 96 280 313 243 232 24 176 127 69 89 98 102 105 117 122 121 110 89 33 356 348 344 340 337 336 331 328 327 328 326 327 327 325 327 330 330 329 328 326 326 326 325
201 132 236 258 228 291 191 61 119 187 136 10 130 117 116 119 125 77 75 19 347 333 331 327 326 330 332 327 328 327 327 327 326 324 325 327 328 327 326 326 327 327 324 320
120 142 176 200 248 255 103 136 340 304 241 41 118 115 125 136 173 162 322 324 318 321 323 323 323 326 324 325 325 324 326 328 326 326 325 325 326 326 325 325 324 322 319 318
135 153 219 227 257 271 131 135 63 155 169 100 117 109 97 112 117 158 278 300 307 316 321 322 322 324 324 323 324 324 326 327 324 322 322 323 324 324 324 322 321 320 319 317
170 175 199 192 235 261 83 110 199 122 121 134 126 119 115 130 162 242 297 312 320 321 320 319 318 319 322 324 323 322 326 325 321 321 321 322 323 324 324 324 325 323 322 321
209 194 185 207 228 109 89 123 132 167 155 140 146 141 176 248 285 303 310 312 316 318 317 317 316 316 319 322 321 321 324 321 320 320 321 322 323 324 325 327 325 326 328 327
194 136 187 151 173 149 145 143 156 165 162 165 195 247 281 291 299 304 308 312 315 315 316 316 316 317 319 322 321 321 322 320 319 318 320 322 322 324 324 326 327 326 327 326
141 138 177 27 110 127 186 187 170 147 151 195 232 261 283 293 300 304 306 308 311 313 315 315 317 316 318 319 318 323 322 319 316 317 319 321 320 322 324 326 325 324 320 321
189 164 193 212 147 131 156 175 163 176 198 223 247 264 279 292 296 300 302 307 312 315 315 315 315 314 316 318 318 322 319 317 315 316 318 318 318 321 323 322 322 327 320 319
Height
1536 1545 1547 1541 1539 1539 1540 1541 1539 1530 1527 1533 1544 1547 1549 1544 1535 1530 1523 1514 1506 1500 1496 1492 1491 1486 1484 1485 1487 1488 1493 1494 1492 1492 1499 1505 1510 1516 1520 1523 1526 1529 1532 1535
1540 1544 1539 1536 1535 1537 1535 1535 1539 1530 1525 1531 1544 1552 1550 1546 1544 1539 1531 1522 1514 1503 1498 1494 1490 1488 1487 1484 1487 1488 1492 1494 1494 1497 1505 1503 1513 1516 1520 1523 1525 1528 1532 1534
1539 1538 1535 1536 1538 1539 1541 1540 1541 1539 1529 1525 1540 1551 1548 1549 1546 1540 1534 1530 1520 1512 1505 1500 1495 1492 1490 1488 1489 1491 1495 1499 1500 1504 1502 1510 1512 1516 1518 1523 1524 1527 1530 1533
1535 1534 1534 1535 1536 1538 1539 1535 1535 1536 1535 1540 1528 1550 1547 1548 1545 1542 1538 1533 1529 1523 1514 1506 1499 1494 1495 1495 1492 1494 1499 1501 1506 1505 1507 1508 1509 1511 1521 1523 1525 1526 1529 1531
1538 1534 1534 1536 1534 1534 1535 1529 1532 1532 1537 1534 1530 1544 1547 1544 1548 1548 1545 1540 1534 1527 1523 1514 1506 1505 1499 1495 1494 1496 1498 1501 1503 1504 1508 1509 1509 1517 1521 1524 1526 1526 1528 1529
1534 1533 1534 1533 1530 1530 1529 1527 1527 1531 1538 1552 1527 1541 1556 1554 1555 1553 1550 1545 1540 1533 1528 1524 1521 1512 1506 1503 1502 1503 1504 1505 1503 1506 1510 1511 1513 1515 1517 1523 1525 1526 1528 1527
1538 1535 1534 1534 1534 1529 1531 1536 1549 1548 1553 1547 1532 1544 1556 1555 1555 1555 1552 1548 1543 1538 1532 1527 1522 1519 1516 1510 1509 1509 1509 1508 1510 1512 1512 1509 1513 1517 1519 1519 1522 1526 1526 1525
1556 1552 1536 1535 1537 1538 1536 1538 1553 1544 1548 1545 1530 1545 1551 1552 1553 1553 1552 1550 1546 1542 1537 1533 1530 1527 1525 1525 1524 1523 1522 1519 1515 1517 1514 1513 1514 1517 1518 1519 1519 1521 1521 1521
1556 1549 1539 1536 1535 1536 1535 1541 1537 1543 1541 1545 1547 1554 1554 1554 1554 1553 1552 1550 1546 1543 1542 1539 1537 1533 1530 1527 1525 1522 1516 1516 1519 1518 1519 1518 1519 1518 1517 1517 1515 1515 1516 1517
1549 1556 1536 1535 1536 1534 1535 1534 1540 1546 1537 1535 1537 1549 1548 1553 1553 1552 1552 1550 1549 1546 1542 1542 1540 1537 1534 1530 1527 1519 1517 1520 1521 1523 1523 1520 1522 1521 1517 1516 1514 1512 1511 1512
1548 1552 1547 1536 1535 1535 1537 1537 1536 1536 1543 1538 1543 1537 1538 1543 1545 1548 1550 1550 1549 1548 1546 1543 1541 1539 1537 1535 1532 1529 1527 1526 1526 1525 1525 1524 1522 1519 1516 1514 1514 1512 1511 1510
1548 1552 1555 1544 1536 1533 1533 1533 1535 1547 1538 1543 1542 1538 1536 1540 1543 1547 1549 1549 1549 1548 1547 1545 1542 1538 1535 1533 1530 1527 1525 1526 1526 1524 1522 1519 1516 1515 1513 1511 1511 1509 1506 1506
1547 1552 1561 1542 1538 1535 1535 1533 1533 1537 1543 1543 1539 1533 1540 1541 1543 1546 1548 1550 1550 1549 1548 1546 1544 1540 1536 1533 1531 1530 1529 1529 1527 1522 1518 1516 1514 1511 1507 1506 1505 1504 1503 1501
1548 1552 1549 1553 1543 1542 1539 1533 1532 1534 1547 1539 1534 1538 1540 1540 1542 1545 1546 1548 1550 1550 1549 1546 1544 1542 1540 1538 1534 1533 1532 1529 1525 1522 1517 1515 1512 1510 1508 1507 1505 1504 1501 1498
1549 1553 1548 1542 1538 1540 1538 1532 1531 1534 1528 1531 1521 1524 1528 1533 1538 1542 1544 1545 1546 1546 1545 1544 1542 1540 1538 1536 1535 1532 1528 1524 1519 1515 1516 1516 1514 1513 1510 1505 1503 1501 1498 1495
1548 1550 1542 1543 1534 1531 1532 1524 1522 1519 1518 1519 1519 1523 1532 1536 1539 1542 1543 1544 1544 1544 1543 1541 1539 1536 1533 1530 1527 1525 1523 1520 1518 1518 1514 1510 1508 1508 1506 1502 1499 1498 1494 1490
1547 1548 1549 1540 1531 1529 1525 1513 1517 1516 1515 1514 1515 1522 1532 1537 1539 1541 1541 1542 1542 1542 1541 1540 1538 1536 1535 1532 1530 1527 1524 1521 1519 1516 1512 1509 1506 1502 1499 1497 1496 1493 1489 1486
1543 1545 1550 1544 1539 1537 1514 1519 1519 1520 1522 1522 1523 1528 1532 1535 1538 1540 1540 1540 1541 1541 1540 1539 1538 1536 1534 1531 1529 1526 1523 1520 1517 1514 1510 1507 1503 1502 1498 1494 1491 1484 1480 1477
1537 1543 1547 1542 1540 1519 1515 1521 1520 1517 1525 1527 1527 1531 1533 1536 1538 1541 1540 1540 1540 1539 1538 1537 1536 1534 1532 1529 1527 1524 1521 1519 1516 1513 1509 1506 1503 1499 1493 1488 1483 1478 1475 1473
1536 1537 1543 1539 1532 1521 1517 1522 1522 1521 1520 1527 1527 1531 1532 1533 1537 1538 1539 1539 1538 1537 1536 1534 1532 1531 1529 1526 1524 1521 1518 1516 1513 1510 1506 1503 1498 1493 1488 1483 1478 1475 1471 1465
1539 1543 1536 1533 1526 1518 1520 1520 1521 1519 1522 1528 1529 1531 1531 1533 1535 1536 1537 1536 1536 1535 1533 1531 1529 1527 1525 1522 1519 1516 1514 1511 1508 1505 1501 1497 1494 1489 1485 1480 1475 1470 1465 1459
1526 1531 1533 1530 1526 1519 1521 1522 1522 1525 1526 1527 1529 1530 1532 1533 1534 1534 1534 1533 1532 1530 1528 1527 1525 1523 1521 1518 1515 1511 1509 1506 1502 1498 1494 1491 1487 1483 1479 1474 1469 1465 1459 1452
1519 1512 1518 1518 1514 1522 1521 1520 1522 1523 1524 1527 1528 1529 1530 1531 1532 1531 1531 1530 1528 1526 1525 1523 1521 1518 1516 1514 1511 1507 1504 1500 1495 1492 1488 1484 1480 1476 1472 1467 1462 1457 1452 1447
1512 1512 1514 1517 1519 1520 1522 1523 1523 1524 1525 1526 1527 1528 1529 1529 1529 1528 1528 1527 1525 1524 1522 1519 1516 1513 1510 1509 1506 1503 1498 1494 1489 1484 1480 1477 1472 1468 1465 1461 1456 1451 1446 1440
1509 1512 1512 1517 1519 1520 1521 1521 1522 1523 1525 1526 1527 1527 1526 1526 1526 1525 1524 1523 1521 1520 1518 1515 1512 1508 1505 1502 1499 1496 1492 1488 1483 1479 1475 1470 1466 1461 1457 1453 1450 1445 1442 1438
1510 1506 1507 1503 1510 1513 1516 1519 1521 1522 1524 1524 1525 1525 1524 1524 1523 1522 1521 1519 1517 1514 1512 1510 1506 1502 1499 1496 1492 1489 1486 1482 1477 1472 1468 1464 1459 1455 1451 1446 1440 1439 1435 1430